Regional Weather Roundup
Issued by NWS

Home | Current Version | Previous Version | Text Only | Print | Product List | Glossary Off
Versions: 1 2 3 4 5 6 7 8 9 10 11 12 13 14 15 16 17 18 19 20 21 22 23 24 25 26 27 28

000
ASUS45 KBOU 270507
RWRCO

WEATHER ROUNDUP FOR COLORADO
NATIONAL WEATHER SERVICE DENVER/BOULDER CO
1000 PM MST SUN FEB 26 2017

NOTE: "FAIR" INDICATES FEW OR NO CLOUDS BELOW 12000 FEET WITH NO
SIGNIFICANT WEATHER AND/OR OBSTRUCTIONS TO VISIBILITY.

COZ001>005-013-030-031-270600-
...NORTHWEST COLORADO...

CITY           SKY/WX    TMP DP  RH WIND       PRES   REMARKS
CRAIG          CLOUDY    18   7  62 E6        29.78F WCI  10
HAYDEN         CLOUDY    18   3  53 E14       29.77F WCI   4
MEEKER         MOCLDY    21  10  62 NE7       29.77F WCI  12
MOUNT WERNER   NOT AVBL
STEAMBOAT SPGS CLOUDY    12   3  67 CALM      29.79F
WALDEN         NOT AVBL
$$

COZ006>008-011-270600-
...WEST CENTRAL VALLEYS...

CITY           SKY/WX    TMP DP  RH WIND       PRES   REMARKS
GRAND JUNCTION FAIR      31  12  45 SE7       29.79F WCI  24
MONTROSE       CLOUDY    31  12  45 SE12      29.85F WCI  22
EAGLE          CLOUDY    21   9  58 E6        29.84S WCI  14
RIFLE          MOCLDY    26  15  63 E3        29.81F
DELTA          CLOUDY    36   9  32 N7        29.85F
NUCLA          MOCLDY    30  10  43 E6        29.88S WCI  24
$$

COZ017>023-064>068-270600-
...SOUTHWEST COLORADO...

CITY           SKY/WX    TMP DP  RH WIND       PRES   REMARKS
DURANGO        CLOUDY    28  14  55 NE3       29.89F
CORTEZ         CLOUDY    26  19  74 W3        29.87F
PAGOSA SPRINGS CLOUDY    24   8  50 CALM      29.90F
TELLURIDE      FAIR      20   6  54 CALM      29.85F
WOLF CREEK PAS CLOUDY     7   1  78 S30G40    29.82F HAZE    WCI -17
$$

COZ009-010-012-014-032>034-037-058>063-270600-
...CENTRAL COLORADO...

CITY           SKY/WX    TMP DP  RH WIND       PRES   REMARKS
ASPEN          FAIR      13   2  61 S8        29.80S WCI   2
BUENA VISTA    FAIR      26   0  33 NW13G26   29.80S WCI  14
COPPER MTN     FAIR       9  -6  52 MISG      29.72S
BERTHOUD PASS  FAIR       0  -9  65 NW25G35   29.65F WCI -25
COTTONWOOD PAS FAIR      21   1  42 W14G28    29.76S WCI   8
GUNNISON       FAIR       9   3  77 NE8       29.89R WCI  -3
KREMMLING      FAIR      21  10  63 CALM      29.80S
LEADVILLE      FAIR       2  -8  63 NE5       29.75F WCI  -8
MONARCH PASS   FAIR       5   0  78 W37       29.84S WCI -21
SALIDA         FAIR      26   3  38 W6        29.90S WCI  19
SUNLIGHT       NOT AVBL
WILKERSON PASS FAIR       9  -4  56 SW17G29   29.71S WCI -10
$$

COZ069>075-270600-
...SAN LUIS VALLEY/SANGRE DE CRISTO MOUNTAINS...

CITY           SKY/WX    TMP DP  RH WIND       PRES   REMARKS
ALAMOSA        FAIR      19  12  74 SW7       29.86S WCI  10
LA VETA PASS   FAIR      18   3  53 SW26G44   29.78R WCI  -1
SAGUACHE       FAIR      18   5  57 N3        29.86S
$$

COZ035-036-038>040-270600-
...NORTHERN COLORADO FRONT RANGE...

CITY           SKY/WX    TMP DP  RH WIND       PRES   REMARKS
DENVER INTL AP FAIR      23   5  46 SE5       29.76S WCI  17
DMNS CITY PARK   N/A     28   3  34 MISG      29.77F
AURORA         PTCLDY    20  -1  39 SW6       29.77S WCI  13
FRONT RANGE AP NOT AVBL
ERIE MUNI ARPT FAIR      20  13  72 SW3       29.79S
BOULDER MUN AP FAIR      28  14  54 CALM      29.78S
CENTENNIAL     FAIR      23   3  42 CALM      29.77R
BROOMFIELD     PTCLDY    27  10  50 N7        29.77F WCI  19
FORT COLLINS   FAIR      23  16  74 N7        29.79F WCI  15
LONGMONT       NOT AVBL
$$

COZ041-046-047-076>085-087-088-270600-
...PIKES PEAK/PALMER DIVIDE AND SOUTHERN FOOTHILLS...

CITY           SKY/WX    TMP DP  RH WIND       PRES   REMARKS
COLO. SPRINGS  FAIR      29  -5  22 N6        29.77F WCI  23
A. F. ACADEMY  FAIR      29  -4  23 VRB5      29.75F WCI  24
SCHRIEVER AFB  FAIR      23  -8  25 N9        29.79S WCI  13
ELLICOTT       NOT AVBL
FALCON         FAIR      25  -4  28 NW10      29.78S WCI  15
FORT CARSON    FAIR      33  -2  22 W5        29.76F WCI  29
LIMON          FAIR      22   5  48 S8        29.80S WCI  12
MONUMENT HILL  FAIR      27   1  33 SW14      29.77F WCI  15
TRINIDAD       FAIR      29   2  31 W7        29.81S WCI  22
$$

COZ042>045-048>051-090-091-270600-
...NORTHEAST COLORADO...

CITY           SKY/WX    TMP DP  RH WIND       PRES   REMARKS
GREELEY ARPT   FAIR      19  14  81 N6        29.80F WCI  11
AKRON          FAIR      21  12  68 E12       29.80F WCI   9
BURLINGTON     FAIR      26   8  46 S17       29.82F WCI  13
WRAY           NOT AVBL
STERLING       FAIR      28  14  54 E7        29.82F WCI  21
HOLYOKE        FAIR      21  18  86 SE7       29.87F WCI  13
FORT MORGAN    FAIR      21  14  73 NE10      29.79F WCI  10
$$

COZ086-089-092>099-270600-
...SOUTHEAST COLORADO...

CITY           SKY/WX    TMP DP  RH WIND       PRES   REMARKS
PUEBLO         FAIR      28  -4  25 E3        29.79R
LA JUNTA       FAIR      36   7  29 S9        29.81S
LAMAR          FAIR      26   7  44 E7        29.82R WCI  18
SPRINGFIELD      N/A     31  11  43 SE12      29.83F WCI  22
$$




USA.gov is the U.S. government's official web portal to all federal, state and local government web resources and services.